This demonstration page uses our WeatherBlox Daily Observations layout. Learn more.

Left ArrowRight Arrow

36.17497, -115.13722

Hourly Observations for April 20, 2017

Temp ( °F °C ) Dew Point ( °F °C ) Humidity (%) Winds ( mph kmh ) Pressure ( in mb ) Visibility ( mi km ) Precip ( " mm )
12:53 am 00:53 Clear 66 18.9 31 -0.6 27 27 NNE 3 6 29.99 1016 10 16.0934 N/A
1:53 am 01:53 Clear 67 19.4 27 -2.8 22 22 VRB 3 6 29.97 1015 10 16.0934 N/A
2:53 am 02:53 Clear 64 17.8 28 -2.2 26 26 VRB 3 6 29.96 1015 10 16.0934 N/A
3:53 am 03:53 Clear 61 16.1 27 -2.8 27 27 NNW 3 6 29.95 1014 10 16.0934 N/A
4:53 am 04:53 Clear 60 15.6 27 -2.8 28 28 NNE 3 6 29.96 1014 10 16.0934 N/A
5:53 am 05:53 Clear 59 15 27 -2.8 29 29 NNW 6 9 29.94 1014 10 16.0934 N/A
6:53 am 06:53 Sunny 59 15 28 -2.2 31 31 N 5 7 29.97 1015 10 16.0934 N/A
7:53 am 07:53 Sunny 65 18.3 26 -3.3 23 23 N 13 20 29.97 1015 10 16.0934 N/A
8:53 am 08:53 Sunny 71 21.7 26 -3.3 19 19 N 12 19 29.98 1015 10 16.0934 N/A
9:53 am 09:53 Sunny 74 23.3 25 -3.9 16 16 NNW 16 26 29.98 1015 10 16.0934 N/A
10:53 am 10:53 Sunny 78 25.6 23 -5 13 13 NNW 17 28 29.97 1015 10 16.0934 N/A
11:53 am 11:53 Sunny 81 27.2 20 -6.7 10 10 NW 13 20 29.96 1015 10 16.0934 N/A
12:53 pm 12:53 Sunny 81 27.2 20 -6.7 10 10 NNW 13 20 29.94 1014 10 16.0934 N/A
1:53 pm 13:53 Sunny 82 27.8 19 -7.2 9 9 VRB 5 7 29.92 1013 10 16.0934 N/A
2:53 pm 14:53 Sunny 82 27.8 19 -7.2 9 9 WSW 9 15 29.91 1013 10 16.0934 N/A
3:53 pm 15:53 Sunny 84 28.9 9 -12.8 6 6 N 18 30 29.89 1012 10 16.0934 N/A
4:53 pm 16:53 Sunny 84 28.9 10 -12.2 6 6 N 13 20 29.88 1012 10 16.0934 N/A
5:53 pm 17:53 Sunny 83 28.3 10 -12.2 6 6 NNW 20 31 29.89 1012 10 16.0934 N/A
6:53 pm 18:53 Sunny 81 27.2 8 -13.3 6 6 NNW 9 15 29.91 1013 10 16.0934 N/A
7:53 pm 19:53 Clear 78 25.6 8 -13.3 7 7 NNE 6 9 29.92 1013 10 16.0934 N/A
8:53 pm 20:53 Clear 75 23.9 12 -11.1 9 9 N 3 6 29.95 1014 10 16.0934 N/A
9:53 pm 21:53 Clear 72 22.2 14 -10 11 11 N 7 11 29.98 1015 10 16.0934 N/A
10:53 pm 22:53 Clear 74 23.3 14 -10 10 10 NNW 17 28 29.98 1015 10 16.0934 N/A
11:53 pm 23:53 Clear 73 22.8 16 -8.9 11 11 NNW 18 30 30 1016 10 16.0934 N/A

Powered by AerisWeather